Flag for Botswana Weather past 2 weeks in Francistown, Botswana

Now
73 °F

Clear.


Feels Like: 75 °F
Forecast: 50 / 87 °F
Wind: 10 mph from Southeast

Location: Francistown Airport

Current Time: Sep 23, 2014 at 8:23:54 PM

Latest Report: Sep 23, 2014 at 7:00 PM


Visibility: 10 mi

Pressure: 30.18 "Hg

Humidity: 19%

Dew point: 28 °F

Location of FrancistownLocation

Historic Weather in Francistown — Graph

°F

Francistown temperature yesterday

Maximum temperature yesterday: 84 °F (at 3:00 PM)
Minimum temperature yesterday: 61 °F (at 6:00 AM)
Average temperature yesterday: 72 °F

Past Weeks' High & Low Weather Summary

 TemperatureHumidityPressure
High99 °F (Sep 18, 2:00 PM)94% (Sep 20, 11:00 PM)30.30 "Hg (Sep 20, 11:00 PM)
Low43 °F (Sep 9, 5:00 AM)8% (Sep 18, 2:00 PM)29.89 "Hg (Sep 17, 4:00 PM)
Average72 °F39%30.12 "Hg
* Reported Sep 8 7:00 PM — Sep 23 7:00 PM, Francistown, Weather by CustomWeather, © 2014

Note: Actual official high and low records may vary slightly from our data, if they occured in-between our weather recording intervals... More about our weather records

Advertising

Francistown weather history for previous 24 hours

 ConditionsComfort  
Time TempWeatherWind HumidityBarometerVisibility
7:00 PM
Sep 23
73 °FClear.10 mph19%30.18 "Hg10 mi
6:00 PM81 °FClear.16 mph16%30.15 "Hg10 mi
5:00 PM84 °FSunny.12 mph14%30.12 "Hg10 mi
3:00 PM84 °FSunny.13 mph16%30.12 "Hg10 mi
2:00 PM82 °FPassing clouds.10 mph20%30.15 "HgN/A
1:00 PM84 °FPassing clouds.10 mph23%30.21 "HgN/A
12:00 PM81 °FPassing clouds.13 mph28%30.24 "HgN/A
11:00 AM75 °FPassing clouds.12 mph36%30.27 "HgN/A
9:00 AM70 °FSunny.16 mph50%30.30 "Hg10 mi
8:00 AM66 °FSunny.8 mph60%30.27 "Hg10 mi
7:00 AM59 °FSunny.7 mph77%30.24 "Hg10 mi
6:00 AM57 °FSunny.6 mph77%30.24 "Hg10 mi
5:00 AM57 °FSunny.8 mph77%30.18 "Hg10 mi
2:00 AM64 °FClear.15 mph64%30.18 "Hg10 mi
1:00 AM66 °FClear.15 mph60%30.18 "Hg10 mi
12:00 AM68 °FClear.13 mph53%30.18 "Hg10 mi
11:00 PM
Sep 22
70 °FClear.14 mph46%30.21 "Hg10 mi
10:00 PM70 °FClear.10 mph46%30.21 "Hg10 mi
9:00 PM72 °FClear.9 mph41%30.21 "Hg10 mi
8:00 PM73 °FClear.14 mph38%30.18 "Hg10 mi
Weather by CustomWeather, © 2014

See weather overviewHow to use our weather pages